Regional Weather Roundup
Issued by NWS Sterling, VA

Home | Current Version | Previous Version | Text Only | Print | Product List | Glossary Off
Versions: 1 2 3 4 5 6 7 8 9 10 11 12 13 14 15 16 17 18 19 20 21 22 23 24 25 26 27 28 29 30 31 32 33 34 35 36 37 38 39 40 41 42 43 44 45 46 47 48 49 50

000
ASUS41 KLWX 291210
RWRLWX

REGIONAL WEATHER ROUNDUP
NATIONAL WEATHER SERVICE BALTIMORE MD/WASHINGTON DC
700 AM EST MON DEC 29 2014

Note: "FAIR" indicates few or no clouds below 12,000 feet
with no significant weather and/or obstructions to visibility.
 TC=TEMPERATURE CELSIUS

 * =Non NWS site. Station does not report precipitation (e.g. rain,
    snow, etc.), thunder, or fog.

DCZ001-MDZ009-015-VAZ040>042-051-053>054-291300-
WASHINGTON METRO

CITY           SKY/WX    TMP DP  RH WIND       PRES   REMARKS
WASHINGTON NAT CLOUDY    45  32  60 N12       30.18F
DULLES         CLOUDY    40  30  67 N7        30.17F
ANDREWS AFB    CLOUDY    40  34  78 N9        30.16F
FT BELVOIR     CLOUDY    42  35  76 VRB3      30.18F
QUANTICO       CLOUDY    43  35  73 N7        30.19F
COLLEGE PARK*  CLOUDY    41  32  70 NE5       30.17F
LEESBURG*      CLOUDY    41  32  70 NE3       30.19R
MANASSAS*      CLOUDY    41  36  81 N5        30.17F
GAITHERSBURG*  CLOUDY    37  27  65 N5        30.20F

$$

MDZ006>007-011-014-291300-
BALTIMORE METRO

CITY           SKY/WX    TMP DP  RH WIND       PRES   REMARKS
BWI AIRPORT    CLOUDY    40  27  59 N8        30.16F
MD SCIENCE CTR   N/A     41  25  53 MISG      30.17F
MARTIN STATE   PTCLDY    43  30  61 N6        30.20S
ANNAPOLIS      CLOUDY    42  31  64 N8        30.15F
FORT MEADE*    CLOUDY    39  30  70 N3        30.20F

$$

MDZ012-015-019>023-291300-
MARYLAND EASTERN SHORE

CITY           SKY/WX    TMP DP  RH WIND       PRES   REMARKS
OCEAN CITY     LGT RAIN  42  39  89 N9        30.16R
SALISBURY      LGT RAIN  44  38  79 N9        30.17R
BAY BRIDGE AP*   N/A     41  30  65 N10       30.17F
CAMBRIDGE*     CLOUDY    43  36  75 N7        30.17
EASTON*        LGT RAIN  41  41 100 NE7       30.20F

$$

MDZ017>025-291300-
SOUTHERN MARYLAND

CITY           SKY/WX    TMP DP  RH WIND       PRES   REMARKS
PATUXENT RIVER LGT RAIN  42  35  76 N10       30.18R
ST INIGOES     CLOUDY    43  34  70 N5        30.17R
LEONARDTOWN*   CLOUDY    41  36  81 CALM      30.19R

$$

MDZ003>005-291300-
NORTH CENTRAL MARYLAND

CITY           SKY/WX    TMP DP  RH WIND       PRES   REMARKS
FREDERICK*     PTCLDY    39  25  56 NE5       30.20F
HAGERSTOWN APT CLOUDY    37  24  59 N5        30.17S
WESTMINSTER*   CLOUDY    37  25  60 N6        30.14F

$$

MDZ501>502-291300-
WESTERN MARYLAND

CITY           SKY/WX    TMP DP  RH WIND       PRES   REMARKS
OAKLAND*       MOCLDY    27 N/A N/A CALM      30.08S
CUMBERLAND*    MOCLDY    36  30  80 CALM      30.22R

$$

VAZ025>031-291300-
SHENANDOAH VALLEY

CITY           SKY/WX    TMP DP  RH WIND       PRES   REMARKS
WINCHESTER*    CLOUDY    41  27  56 NE3       30.17R
FRONT ROYAL*   CLOUDY    37  30  75 N5        30.16R
LURAY*         CLOUDY    41  32  70 N7        30.14R
NEW MARKET*    CLOUDY    39  32  77 NE5       30.13R
STAUNTON*      DRIZZLE   38  34  85 NE10      30.14R
WAYNESBORO*    CLOUDY    37  36  97 NW3       30.11R

$$

WVZ021-048>050-054>055-291300-
EASTERN WEST VIRGINIA PANHANDLE

CITY           SKY/WX    TMP DP  RH WIND       PRES   REMARKS
MARTINSBURG    CLOUDY    38  24  57 N5        30.18R
PETERSBURG*    CLOUDY    40  29  66 CALM      30.17R

$$

VAZ036>039-050-291300-
CENTRAL FOOTHILLS

CITY           SKY/WX    TMP DP  RH WIND       PRES   REMARKS
CHARLOTTESVILL CLOUDY    40  36  86 E6        30.14S
CULPEPER*      CLOUDY    41  36  81 CALM      30.16S
ORANGE*        CLOUDY    41  36  81 NE5       30.16S
GORDONSVILLE*  CLOUDY    39  35  87 E5        30.15S
WARRENTON*     CLOUDY    41  39  93 CALM      30.16R

$$

VAZ055>057-291300-
NORTH AND CENTRAL PIEDMONT

CITY           SKY/WX    TMP DP  RH WIND       PRES   REMARKS
FREDERICKSBRG* CLOUDY    42  40  90 CALM      30.17R
STAFFORD*      CLOUDY    40  39  96 CALM      30.21R

$$

NCZ024-NYZ072-PAZ021-071-VAZ022-071-291300-
OTHER REGIONAL OBSERVATIONS

CITY           SKY/WX    TMP DP  RH WIND       PRES   REMARKS
NEW YORK CITY  PTCLDY    38  22  52 NW7       30.20R
PHILADELPHIA   CLOUDY    41  23  48 N5        30.20R
PITTSBURGH     PTCLDY    30  24  78 CALM      30.18R
ROANOKE        LGT RAIN  47  44  90 N6        30.11R
RICHMOND       LGT RAIN  43  38  82 NE8       30.17R
RALEIGH        LGT RAIN  52  49  89 NE8       30.06F

$$

ANZ530>537-291300-
MARINE OBSERVATIONS

STATION/POSITION TIME  TEMP    WIND        PRES
                       AIR SEA DIR/SP/G
                 (UTC) (F)     (DEG/KT/KT) (MB)
THOMAS PT LIGHT  1200   42 43   30/ 15/ 16 1022.5F
BALT KEY BRIDGE  1200   41     360/  7/  9 1022.1F
COVE POINT       1200   42      30/ 14/ 17 1021.5F
LEWISETTA        1200   42 45   10/  6/ 10 1021.6R
SOLOMONS ISLAND  1200      44                N/A
PINEY POINT      1200           10/  5/  6   N/A

$$



USA.gov is the U.S. government's official web portal to all federal, state and local government web resources and services.